Time,TemperatureF,DewpointF,PressureIn,WindDirection,WindDirectionDegrees,WindSpeedMPH,WindSpeedGustMPH,Humidity,HourlyPrecipIn,Conditions,Clouds,dailyrainin,SoftwareType,DateUTC
2013-02-06 00:00:00,70.9,59.4,30.06,WSW,248,0.0,0.0,67,0.00,CLR,,0.00,WeatherDisplay:10.37,2013-02-06 05:00:00,
2013-02-06 00:05:00,70.5,59.4,30.06,WSW,248,0.0,0.0,68,0.00,CLR,,0.00,WeatherDisplay:10.37,2013-02-06 05:05:00,
2013-02-06 00:11:00,70.3,59.3,30.06,WSW,248,0.0,0.0,68,0.00,CLR,,0.00,WeatherDisplay:10.37,2013-02-06 05:11:00,
2013-02-06 00:16:00,70.2,59.1,30.06,WSW,248,0.0,0.0,68,0.00,CLR,,0.00,WeatherDisplay:10.37,2013-02-06 05:16:00,
2013-02-06 00:21:00,70.2,59.1,30.06,WSW,248,0.0,0.0,68,0.00,CLR,,0.00,WeatherDisplay:10.37,2013-02-06 05:21:00,
2013-02-06 00:26:00,70.0,58.9,30.06,NW,315,0.0,0.0,68,0.00,CLR,,0.00,WeatherDisplay:10.37,2013-02-06 05:26:00,
2013-02-06 00:31:00,69.8,59.2,30.06,NW,315,1.2,0.0,69,0.00,CLR,,0.00,WeatherDisplay:10.37,2013-02-06 05:31:00,
2013-02-06 00:36:00,69.8,59.2,30.06,NW,315,0.0,0.0,69,0.00,CLR,,0.00,WeatherDisplay:10.37,2013-02-06 05:36:00,
2013-02-06 00:41:00,69.4,58.8,30.06,WNW,292,2.9,2.9,69,0.00,CLR,,0.00,WeatherDisplay:10.37,2013-02-06 05:41:00,
2013-02-06 00:46:00,69.4,58.8,30.06,WNW,292,0.0,0.0,69,0.00,CLR,,0.00,WeatherDisplay:10.37,2013-02-06 05:46:00,
2013-02-06 00:51:00,69.3,58.7,30.06,WNW,292,0.0,0.0,69,0.00,CLR,,0.00,WeatherDisplay:10.37,2013-02-06 05:51:00,
2013-02-06 00:56:00,69.1,58.9,30.06,WNW,292,0.0,0.0,70,0.00,CLR,,0.00,WeatherDisplay:10.37,2013-02-06 05:56:00,
2013-02-06 01:01:00,68.9,58.7,30.06,WNW,292,0.0,0.0,70,0.00,CLR,,0.00,WeatherDisplay:10.37,2013-02-06 06:01:00,
2013-02-06 01:06:00,68.7,58.5,30.06,WNW,292,0.0,0.0,70,0.00,CLR,,0.00,WeatherDisplay:10.37,2013-02-06 06:06:00,
2013-02-06 01:12:00,68.7,58.5,30.06,WNW,292,0.0,0.0,70,0.00,CLR,,0.00,WeatherDisplay:10.37,2013-02-06 06:12:00,
2013-02-06 01:17:00,68.5,58.4,30.06,WNW,292,0.0,0.0,70,0.00,CLR,,0.00,WeatherDisplay:10.37,2013-02-06 06:17:00,
2013-02-06 01:22:00,68.5,58.8,30.06,WNW,292,0.0,0.0,71,0.00,CLR,,0.00,WeatherDisplay:10.37,2013-02-06 06:22:00,
2013-02-06 01:27:00,68.4,58.6,30.06,WNW,292,0.0,0.0,71,0.00,CLR,,0.00,WeatherDisplay:10.37,2013-02-06 06:27:00,
2013-02-06 01:32:00,68.4,58.6,30.06,WNW,292,0.0,0.0,71,0.00,CLR,,0.00,WeatherDisplay:10.37,2013-02-06 06:32:00,
2013-02-06 01:37:00,68.4,58.6,30.06,WNW,292,0.0,0.0,71,0.00,CLR,,0.00,WeatherDisplay:10.37,2013-02-06 06:37:00,
2013-02-06 01:42:00,68.2,58.4,30.06,NW,315,0.0,0.0,71,0.00,CLR,,0.00,WeatherDisplay:10.37,2013-02-06 06:42:00,
2013-02-06 01:47:00,68.2,58.4,30.06,NW,315,2.3,0.0,71,0.00,CLR,,0.00,WeatherDisplay:10.37,2013-02-06 06:47:00,
2013-02-06 01:52:00,68.0,58.6,30.06,West,270,0.0,0.0,72,0.00,CLR,,0.00,WeatherDisplay:10.37,2013-02-06 06:52:00,
2013-02-06 01:57:00,67.8,58.5,30.06,West,270,2.6,0.0,72,0.00,CLR,,0.00,WeatherDisplay:10.37,2013-02-06 06:57:00,
2013-02-06 02:03:00,67.6,58.7,30.06,West,270,4.6,4.6,73,0.00,CLR,,0.00,WeatherDisplay:10.37,2013-02-06 07:03:00,
2013-02-06 02:08:00,67.6,58.7,30.06,WSW,248,2.4,0.0,73,0.00,CLR,,0.00,WeatherDisplay:10.37,2013-02-06 07:08:00,
2013-02-06 02:13:00,67.6,58.7,30.06,NW,315,0.0,0.0,73,0.00,CLR,,0.00,WeatherDisplay:10.37,2013-02-06 07:13:00,
2013-02-06 02:18:00,67.6,59.1,30.06,NW,315,0.0,0.0,74,0.00,CLR,,0.00,WeatherDisplay:10.37,2013-02-06 07:18:00,
2013-02-06 02:23:00,67.8,59.2,30.06,NW,315,0.0,0.0,74,0.00,CLR,,0.00,WeatherDisplay:10.37,2013-02-06 07:23:00,
2013-02-06 02:28:00,68.0,59.4,30.06,NW,315,0.0,0.0,74,0.00,CLR,,0.00,WeatherDisplay:10.37,2013-02-06 07:28:00,
2013-02-06 02:33:00,67.8,59.2,30.06,WSW,248,0.0,0.0,74,0.00,CLR,,0.00,WeatherDisplay:10.37,2013-02-06 07:33:00,
2013-02-06 02:39:00,67.6,59.4,30.06,NW,315,0.0,0.0,75,0.00,CLR,,0.00,WeatherDisplay:10.37,2013-02-06 07:39:00,
2013-02-06 02:44:00,67.5,59.3,30.06,NW,315,0.0,0.0,75,0.00,CLR,,0.00,WeatherDisplay:10.37,2013-02-06 07:44:00,
2013-02-06 02:49:00,67.5,59.3,30.06,North,0,0.0,0.0,75,0.00,CLR,,0.00,WeatherDisplay:10.37,2013-02-06 07:49:00,
2013-02-06 02:54:00,67.5,59.3,30.06,NW,315,0.0,0.0,75,0.00,CLR,,0.00,WeatherDisplay:10.37,2013-02-06 07:54:00,
2013-02-06 02:59:00,67.3,59.1,30.06,NW,315,0.0,0.0,75,0.00,CLR,,0.00,WeatherDisplay:10.37,2013-02-06 07:59:00,
2013-02-06 03:04:00,67.3,59.5,30.06,WNW,292,0.0,0.0,76,0.00,CLR,,0.00,WeatherDisplay:10.37,2013-02-06 08:04:00,
2013-02-06 03:09:00,67.3,59.5,30.06,NW,315,0.0,0.0,76,0.00,CLR,,0.00,WeatherDisplay:10.37,2013-02-06 08:09:00,
2013-02-06 03:14:00,67.1,59.3,30.06,NW,315,0.0,0.0,76,0.00,CLR,,0.00,WeatherDisplay:10.37,2013-02-06 08:14:00,
2013-02-06 03:19:00,67.1,59.3,30.06,NW,315,0.0,0.0,76,0.00,CLR,,0.00,WeatherDisplay:10.37,2013-02-06 08:19:00,
2013-02-06 03:25:00,66.9,59.5,30.06,WNW,292,0.0,0.0,77,0.00,CLR,,0.00,WeatherDisplay:10.37,2013-02-06 08:25:00,
2013-02-06 03:30:00,66.9,59.5,30.06,NW,315,0.0,0.0,77,0.00,CLR,,0.00,WeatherDisplay:10.37,2013-02-06 08:30:00,
2013-02-06 03:35:00,66.9,59.5,30.06,NW,308,0.0,0.0,77,0.00,CLR,,0.00,WeatherDisplay:10.37,2013-02-06 08:35:00,
2013-02-06 03:40:00,67.1,60.0,30.06,WNW,298,0.0,0.0,78,0.00,CLR,,0.00,WeatherDisplay:10.37,2013-02-06 08:40:00,
2013-02-06 03:45:00,67.1,60.0,30.06,WSW,248,1.2,0.0,78,0.00,CLR,,0.00,WeatherDisplay:10.37,2013-02-06 08:45:00,
2013-02-06 03:50:00,66.9,60.2,30.06,West,270,0.0,0.0,79,0.00,CLR,,0.00,WeatherDisplay:10.37,2013-02-06 08:50:00,
2013-02-06 03:56:00,66.7,60.0,30.06,West,270,0.0,0.0,79,0.00,CLR,,0.00,WeatherDisplay:10.37,2013-02-06 08:56:00,
2013-02-06 04:01:00,66.9,60.2,30.06,West,270,0.0,0.0,79,0.00,CLR,,0.00,WeatherDisplay:10.37,2013-02-06 09:01:00,
2013-02-06 04:06:00,66.9,60.2,30.06,West,270,0.0,0.0,79,0.00,CLR,,0.00,WeatherDisplay:10.37,2013-02-06 09:06:00,
2013-02-06 04:11:00,66.7,60.0,30.06,West,270,0.0,0.0,79,0.00,CLR,,0.00,WeatherDisplay:10.37,2013-02-06 09:11:00,
2013-02-06 04:16:00,66.6,59.8,30.06,West,270,0.0,0.0,79,0.00,CLR,,0.00,WeatherDisplay:10.37,2013-02-06 09:16:00,
2013-02-06 04:21:00,66.7,60.0,30.06,West,270,0.0,0.0,79,0.00,CLR,,0.00,WeatherDisplay:10.37,2013-02-06 09:21:00,
2013-02-06 04:27:00,66.6,59.8,30.06,West,270,0.0,0.0,79,0.00,CLR,,0.00,WeatherDisplay:10.37,2013-02-06 09:27:00,
2013-02-06 04:32:00,66.7,60.4,30.06,West,270,0.0,0.0,80,0.00,CLR,,0.00,WeatherDisplay:10.37,2013-02-06 09:32:00,
2013-02-06 04:37:00,66.7,60.4,30.06,West,270,0.0,0.0,80,0.00,CLR,,0.00,WeatherDisplay:10.37,2013-02-06 09:37:00,
2013-02-06 04:42:00,66.7,60.4,30.06,West,270,0.0,0.0,80,0.00,CLR,,0.00,WeatherDisplay:10.37,2013-02-06 09:42:00,
2013-02-06 04:47:00,66.6,60.2,30.06,West,270,0.0,0.0,80,0.00,CLR,,0.00,WeatherDisplay:10.37,2013-02-06 09:47:00,
2013-02-06 04:52:00,66.6,60.2,30.06,West,270,0.0,0.0,80,0.00,CLR,,0.00,WeatherDisplay:10.37,2013-02-06 09:52:00,
2013-02-06 04:57:00,66.6,60.2,30.06,NW,315,0.0,0.0,80,0.00,CLR,,0.00,WeatherDisplay:10.37,2013-02-06 09:57:00,
2013-02-06 05:02:00,66.6,60.2,30.06,NW,315,0.0,0.0,80,0.00,CLR,,0.00,WeatherDisplay:10.37,2013-02-06 10:02:00,
2013-02-06 05:08:00,66.6,60.5,30.06,WNW,292,0.0,0.0,81,0.00,CLR,,0.00,WeatherDisplay:10.37,2013-02-06 10:08:00,
2013-02-06 05:13:00,66.6,60.5,30.06,WNW,292,0.9,0.0,81,0.00,CLR,,0.00,WeatherDisplay:10.37,2013-02-06 10:13:00,
2013-02-06 05:18:00,66.6,60.5,30.06,WNW,292,0.0,0.0,81,0.00,CLR,,0.00,WeatherDisplay:10.37,2013-02-06 10:18:00,
2013-02-06 05:23:00,66.6,60.5,30.06,WNW,292,0.0,0.0,81,0.00,CLR,,0.00,WeatherDisplay:10.37,2013-02-06 10:23:00,
2013-02-06 05:29:00,66.4,60.4,30.06,NNW,338,0.0,0.0,81,0.00,CLR,,0.00,WeatherDisplay:10.37,2013-02-06 10:29:00,
2013-02-06 05:34:00,66.4,60.4,30.06,NNW,338,0.0,0.0,81,0.00,CLR,,0.00,WeatherDisplay:10.37,2013-02-06 10:34:00,
2013-02-06 05:39:00,66.4,60.4,30.06,NNW,338,0.0,0.0,81,0.00,CLR,,0.00,WeatherDisplay:10.37,2013-02-06 10:39:00,
2013-02-06 05:44:00,66.4,60.4,30.06,NNW,338,0.0,0.0,81,0.00,CLR,,0.00,WeatherDisplay:10.37,2013-02-06 10:44:00,
2013-02-06 05:49:00,66.4,60.4,30.09,NNW,338,0.0,0.0,81,0.00,CLR,,0.00,WeatherDisplay:10.37,2013-02-06 10:49:00,
2013-02-06 05:55:00,66.4,60.4,30.09,North,0,1.2,0.0,81,0.00,CLR,,0.00,WeatherDisplay:10.37,2013-02-06 10:55:00,
2013-02-06 06:00:00,66.2,60.2,30.09,WNW,292,2.3,2.3,81,0.00,CLR,,0.00,WeatherDisplay:10.37,2013-02-06 11:00:00,
2013-02-06 06:05:00,66.2,60.2,30.09,NW,318,1.0,3.0,81,0.00,CLR,,0.00,WeatherDisplay:10.37,2013-02-06 11:05:00,
2013-02-06 06:10:00,66.2,60.5,30.09,NW,315,0.0,0.0,82,0.00,CLR,,0.00,WeatherDisplay:10.37,2013-02-06 11:10:00,
2013-02-06 06:15:00,66.2,60.5,30.09,NW,315,2.0,2.0,82,0.00,CLR,,0.00,WeatherDisplay:10.37,2013-02-06 11:15:00,
2013-02-06 06:20:00,66.2,60.5,30.09,West,270,0.0,0.0,82,0.00,CLR,,0.00,WeatherDisplay:10.37,2013-02-06 11:20:00,
2013-02-06 06:25:00,66.2,60.5,30.09,NW,315,0.0,0.0,82,0.00,CLR,,0.00,WeatherDisplay:10.37,2013-02-06 11:25:00,
2013-02-06 06:31:00,66.0,60.4,30.09,West,270,0.0,0.0,82,0.00,CLR,,0.00,WeatherDisplay:10.37,2013-02-06 11:31:00,
2013-02-06 06:36:00,66.0,60.4,30.09,NW,315,3.5,3.5,82,0.00,CLR,,0.00,WeatherDisplay:10.37,2013-02-06 11:36:00,
2013-02-06 06:41:00,65.8,60.2,30.09,NW,315,4.6,4.6,82,0.00,CLR,,0.00,WeatherDisplay:10.37,2013-02-06 11:41:00,
2013-02-06 06:46:00,65.8,60.2,30.09,NW,315,2.3,0.0,82,0.00,CLR,,0.00,WeatherDisplay:10.37,2013-02-06 11:46:00,
2013-02-06 06:51:00,65.8,60.2,30.09,NW,315,0.0,0.0,82,0.00,CLR,,0.00,WeatherDisplay:10.37,2013-02-06 11:51:00,
2013-02-06 06:56:00,65.8,60.2,30.09,West,270,0.0,0.0,82,0.00,CLR,,0.00,WeatherDisplay:10.37,2013-02-06 11:56:00,
2013-02-06 07:02:00,65.8,60.2,30.06,WSW,248,0.0,0.0,82,0.00,CLR,,0.00,WeatherDisplay:10.37,2013-02-06 12:02:00,
2013-02-06 07:07:00,65.8,60.2,30.06,WSW,248,0.0,0.0,82,0.00,CLR,,0.00,WeatherDisplay:10.37,2013-02-06 12:07:00,
2013-02-06 07:12:00,65.7,60.4,30.06,WSW,248,0.0,0.0,83,0.00,CLR,,0.00,WeatherDisplay:10.37,2013-02-06 12:12:00,
2013-02-06 07:17:00,65.7,60.0,30.09,NW,315,0.0,0.0,82,0.00,CLR,,0.00,WeatherDisplay:10.37,2013-02-06 12:17:00,
2013-02-06 07:22:00,65.7,60.0,30.09,West,270,0.0,0.0,82,0.00,CLR,,0.00,WeatherDisplay:10.37,2013-02-06 12:22:00,
2013-02-06 07:27:00,65.7,60.0,30.09,WNW,292,0.0,0.0,82,0.00,CLR,,0.00,WeatherDisplay:10.37,2013-02-06 12:27:00,
2013-02-06 07:32:00,65.7,60.0,30.12,NW,315,0.0,0.0,82,0.00,CLR,,0.00,WeatherDisplay:10.37,2013-02-06 12:32:00,
2013-02-06 07:37:00,65.7,60.0,30.12,NW,315,0.0,0.0,82,0.00,CLR,,0.00,WeatherDisplay:10.37,2013-02-06 12:37:00,
2013-02-06 07:42:00,65.8,60.2,30.12,NW,315,0.0,0.0,82,0.00,CLR,,0.00,WeatherDisplay:10.37,2013-02-06 12:42:00,
2013-02-06 07:47:00,65.8,60.2,30.09,NW,315,0.0,0.0,82,0.00,CLR,,0.00,WeatherDisplay:10.37,2013-02-06 12:47:00,
2013-02-06 07:53:00,66.0,60.0,30.09,NW,315,0.0,0.0,81,0.00,CLR,,0.00,WeatherDisplay:10.37,2013-02-06 12:53:00,
2013-02-06 07:58:00,66.0,60.0,30.09,NW,315,0.0,0.0,81,0.00,CLR,,0.00,WeatherDisplay:10.37,2013-02-06 12:58:00,
2013-02-06 08:03:00,66.2,59.8,30.12,NW,315,0.0,0.0,80,0.00,CLR,,0.00,WeatherDisplay:10.37,2013-02-06 13:03:00,
2013-02-06 08:08:00,66.4,60.0,30.12,West,270,0.0,0.0,80,0.00,CLR,,0.00,WeatherDisplay:10.37,2013-02-06 13:08:00,
2013-02-06 08:13:00,66.6,60.2,30.12,NW,315,0.0,0.0,80,0.00,CLR,,0.00,WeatherDisplay:10.37,2013-02-06 13:13:00,
2013-02-06 08:18:00,66.7,60.4,30.12,NW,315,1.6,0.0,80,0.00,CLR,,0.00,WeatherDisplay:10.37,2013-02-06 13:18:00,
2013-02-06 08:23:00,66.9,60.2,30.12,NW,315,4.6,4.6,79,0.00,CLR,,0.00,WeatherDisplay:10.37,2013-02-06 13:23:00,
2013-02-06 08:29:00,67.1,60.4,30.12,NW,315,4.6,4.6,79,0.00,CLR,,0.00,WeatherDisplay:10.37,2013-02-06 13:29:00,
2013-02-06 08:34:00,67.3,60.5,30.12,NW,315,4.6,4.6,79,0.00,CLR,,0.00,WeatherDisplay:10.37,2013-02-06 13:34:00,
2013-02-06 08:39:00,67.5,60.7,30.12,West,270,3.5,3.5,79,0.00,CLR,,0.00,WeatherDisplay:10.37,2013-02-06 13:39:00,
2013-02-06 08:44:00,67.8,61.1,30.12,NW,315,4.6,4.6,79,0.00,CLR,,0.00,WeatherDisplay:10.37,2013-02-06 13:44:00,
2013-02-06 08:49:00,68.0,61.2,30.15,NW,315,0.0,0.0,79,0.00,CLR,,0.00,WeatherDisplay:10.37,2013-02-06 13:49:00,
2013-02-06 08:54:00,68.4,61.6,30.15,NW,315,3.6,3.6,79,0.00,CLR,,0.00,WeatherDisplay:10.37,2013-02-06 13:54:00,
2013-02-06 08:59:00,68.9,62.1,30.15,WNW,292,4.3,4.3,79,0.00,CLR,,0.00,WeatherDisplay:10.37,2013-02-06 13:59:00,
2013-02-06 09:04:00,69.3,62.5,30.12,WNW,292,4.6,4.6,79,0.00,CLR,,0.00,WeatherDisplay:10.37,2013-02-06 14:04:00,
2013-02-06 09:10:00,69.4,62.6,30.12,NW,315,4.6,4.6,79,0.00,CLR,,0.00,WeatherDisplay:10.37,2013-02-06 14:10:00,
2013-02-06 09:15:00,69.8,63.0,30.12,NW,315,2.3,2.3,79,0.00,CLR,,0.00,WeatherDisplay:10.37,2013-02-06 14:15:00,
2013-02-06 09:20:00,70.0,62.8,30.15,NW,315,0.0,0.0,78,0.00,CLR,,0.00,WeatherDisplay:10.37,2013-02-06 14:20:00,
2013-02-06 09:25:00,70.3,63.2,30.15,NW,315,0.0,0.0,78,0.00,CLR,,0.00,WeatherDisplay:10.37,2013-02-06 14:25:00,
2013-02-06 09:30:00,70.5,63.3,30.15,NW,315,0.0,0.0,78,0.00,CLR,,0.00,WeatherDisplay:10.37,2013-02-06 14:30:00,
2013-02-06 09:36:00,70.5,63.3,30.15,NW,315,0.0,0.0,78,0.00,CLR,,0.00,WeatherDisplay:10.37,2013-02-06 14:36:00,
2013-02-06 09:41:00,70.9,63.7,30.15,NW,315,0.0,0.0,78,0.00,CLR,,0.00,WeatherDisplay:10.37,2013-02-06 14:41:00,
2013-02-06 09:46:00,71.4,64.2,30.15,SE,135,0.0,0.0,78,0.00,CLR,,0.00,WeatherDisplay:10.37,2013-02-06 14:46:00,
2013-02-06 09:51:00,71.6,64.0,30.15,South,180,1.6,0.0,77,0.00,CLR,,0.00,WeatherDisplay:10.37,2013-02-06 14:51:00,
2013-02-06 09:56:00,72.5,64.5,30.15,ENE,68,1.2,0.0,76,0.00,CLR,,0.00,WeatherDisplay:10.37,2013-02-06 14:56:00,
2013-02-06 10:01:00,72.7,64.7,30.15,NE,45,2.3,0.0,76,0.00,CLR,,0.00,WeatherDisplay:10.37,2013-02-06 15:01:00,
2013-02-06 10:07:00,72.9,64.5,30.15,ENE,68,1.2,0.0,75,0.00,CLR,,0.00,WeatherDisplay:10.37,2013-02-06 15:07:00,
2013-02-06 10:12:00,73.0,64.6,30.15,East,90,0.0,0.0,75,0.00,CLR,,0.00,WeatherDisplay:10.37,2013-02-06 15:12:00,
2013-02-06 10:17:00,73.0,64.6,30.15,East,90,0.0,0.0,75,0.00,CLR,,0.00,WeatherDisplay:10.37,2013-02-06 15:17:00,
2013-02-06 12:48:00,77.4,65.1,30.12,East,90,5.8,5.8,66,0.00,CLR,,0.00,WeatherDisplay:10.37,2013-02-06 17:48:00,
2013-02-06 12:54:00,77.5,65.3,30.12,SE,135,5.8,5.8,66,0.00,CLR,,0.00,WeatherDisplay:10.37,2013-02-06 17:54:00,
2013-02-06 12:59:00,77.9,65.6,30.12,SE,135,5.8,5.8,66,0.00,CLR,,0.00,WeatherDisplay:10.37,2013-02-06 17:59:00,
2013-02-06 13:04:00,78.1,65.8,30.12,ENE,68,5.8,5.8,66,0.00,CLR,,0.00,WeatherDisplay:10.37,2013-02-06 18:04:00,
2013-02-06 13:09:00,78.1,65.8,30.12,NE,45,3.8,3.8,66,0.00,CLR,,0.00,WeatherDisplay:10.37,2013-02-06 18:09:00,
2013-02-06 13:15:00,78.4,66.1,30.12,ENE,68,4.6,4.6,66,0.00,CLR,,0.00,WeatherDisplay:10.37,2013-02-06 18:15:00,
2013-02-06 13:20:00,78.6,65.9,30.06,SW,225,5.8,5.8,65,0.00,CLR,,0.00,WeatherDisplay:10.37,2013-02-06 18:20:00,
2013-02-06 13:25:00,78.3,65.1,30.06,SSE,158,5.8,5.8,64,0.00,CLR,,0.00,WeatherDisplay:10.37,2013-02-06 18:25:00,
2013-02-06 13:30:00,78.1,64.9,30.06,SSW,202,5.8,5.8,64,0.00,CLR,,0.00,WeatherDisplay:10.37,2013-02-06 18:30:00,
2013-02-06 13:35:00,78.1,64.9,30.09,SW,225,8.5,8.5,64,0.00,CLR,,0.00,WeatherDisplay:10.37,2013-02-06 18:35:00,
2013-02-06 13:40:00,78.1,65.4,30.09,SW,225,3.5,3.5,65,0.00,CLR,,0.00,WeatherDisplay:10.37,2013-02-06 18:40:00,
2013-02-06 13:46:00,77.9,64.7,30.09,ESE,112,5.8,5.8,64,0.00,CLR,,0.00,WeatherDisplay:10.37,2013-02-06 18:46:00,
2013-02-06 13:51:00,77.9,64.7,30.09,South,180,5.8,5.8,64,0.00,CLR,,0.00,WeatherDisplay:10.37,2013-02-06 18:51:00,
2013-02-06 13:56:00,77.7,64.6,30.09,SE,135,5.8,5.8,64,0.00,CLR,,0.00,WeatherDisplay:10.37,2013-02-06 18:56:00,
2013-02-06 14:01:00,77.7,64.6,30.09,East,90,4.6,4.6,64,0.00,CLR,,0.00,WeatherDisplay:10.37,2013-02-06 19:01:00,
2013-02-06 14:06:00,77.9,64.7,30.09,East,90,4.6,4.6,64,0.00,CLR,,0.00,WeatherDisplay:10.37,2013-02-06 19:06:00,
2013-02-06 14:11:00,77.7,64.1,30.09,ESE,112,6.2,6.2,63,0.00,CLR,,0.00,WeatherDisplay:10.37,2013-02-06 19:11:00,
2013-02-06 14:16:00,77.5,64.4,30.09,ENE,68,4.6,4.6,64,0.00,CLR,,0.00,WeatherDisplay:10.37,2013-02-06 19:16:00,
2013-02-06 14:21:00,77.4,63.8,30.09,SE,135,5.8,5.8,63,0.00,CLR,,0.00,WeatherDisplay:10.37,2013-02-06 19:21:00,
2013-02-06 14:27:00,77.5,63.9,30.09,ENE,68,3.1,3.1,63,0.00,CLR,,0.00,WeatherDisplay:10.37,2013-02-06 19:27:00,
2013-02-06 14:32:00,77.7,64.6,30.09,East,90,3.5,4.0,64,0.00,CLR,,0.00,WeatherDisplay:10.37,2013-02-06 19:32:00,
2013-02-06 14:37:00,77.7,64.6,30.09,ESE,112,8.1,8.1,64,0.00,CLR,,0.00,WeatherDisplay:10.37,2013-02-06 19:37:00,
2013-02-06 14:42:00,77.5,63.9,30.09,SSW,202,4.6,4.6,63,0.00,CLR,,0.00,WeatherDisplay:10.37,2013-02-06 19:42:00,
2013-02-06 14:47:00,77.5,63.9,30.09,NE,45,4.6,4.6,63,0.00,CLR,,0.00,WeatherDisplay:10.37,2013-02-06 19:47:00,
2013-02-06 14:52:00,77.5,64.4,30.09,NE,45,7.6,7.6,64,0.00,CLR,,0.00,WeatherDisplay:10.37,2013-02-06 19:52:00,
2013-02-06 14:58:00,77.4,63.8,30.09,SW,225,4.6,0.0,63,0.00,CLR,,0.00,WeatherDisplay:10.37,2013-02-06 19:58:00,
2013-02-06 15:03:00,77.4,64.2,30.09,East,90,5.8,5.8,64,0.00,CLR,,0.00,WeatherDisplay:10.37,2013-02-06 20:03:00,
2013-02-06 15:08:00,77.4,64.2,30.09,SE,135,4.6,4.6,64,0.00,CLR,,0.00,WeatherDisplay:10.37,2013-02-06 20:08:00,
2013-02-06 15:13:00,77.5,64.4,30.09,WSW,248,6.9,6.9,64,0.00,CLR,,0.00,WeatherDisplay:10.37,2013-02-06 20:13:00,
2013-02-06 15:18:00,77.5,63.9,30.09,SSE,158,5.8,5.8,63,0.00,CLR,,0.00,WeatherDisplay:10.37,2013-02-06 20:18:00,
2013-02-06 15:23:00,77.4,63.3,30.09,SE,135,7.4,7.4,62,0.00,CLR,,0.00,WeatherDisplay:10.37,2013-02-06 20:23:00,
2013-02-06 15:28:00,77.4,63.8,30.09,NE,45,3.8,3.8,63,0.00,CLR,,0.00,WeatherDisplay:10.37,2013-02-06 20:28:00,
2013-02-06 15:33:00,77.5,63.9,30.09,SSE,158,5.8,5.8,63,0.00,CLR,,0.00,WeatherDisplay:10.37,2013-02-06 20:33:00,
2013-02-06 15:39:00,77.4,63.8,30.09,SE,135,4.6,4.6,63,0.00,CLR,,0.00,WeatherDisplay:10.37,2013-02-06 20:39:00,
2013-02-06 15:44:00,77.4,63.8,30.09,SE,135,5.8,5.8,63,0.00,CLR,,0.00,WeatherDisplay:10.37,2013-02-06 20:44:00,
2013-02-06 15:49:00,77.4,63.8,30.09,SE,135,5.8,5.8,63,0.00,CLR,,0.00,WeatherDisplay:10.37,2013-02-06 20:49:00,
2013-02-06 15:54:00,77.2,64.1,30.09,South,180,4.6,4.6,64,0.00,CLR,,0.00,WeatherDisplay:10.37,2013-02-06 20:54:00,
2013-02-06 15:59:00,76.8,63.7,30.09,NNW,338,5.8,5.8,64,0.00,CLR,,0.00,WeatherDisplay:10.37,2013-02-06 20:59:00,
2013-02-06 16:04:00,76.8,63.7,30.09,ENE,68,5.8,5.8,64,0.00,CLR,,0.00,WeatherDisplay:10.37,2013-02-06 21:04:00,
2013-02-06 16:09:00,76.8,63.7,30.09,SW,225,6.9,6.9,64,0.00,CLR,,0.00,WeatherDisplay:10.37,2013-02-06 21:09:00,
2013-02-06 16:14:00,76.8,63.3,30.09,East,90,4.6,4.6,63,0.00,CLR,,0.00,WeatherDisplay:10.37,2013-02-06 21:14:00,
2013-02-06 16:19:00,76.8,63.3,30.09,SE,135,5.8,5.8,63,0.00,CLR,,0.00,WeatherDisplay:10.37,2013-02-06 21:19:00,
2013-02-06 16:25:00,76.6,63.1,30.09,SE,135,5.8,5.8,63,0.00,CLR,,0.00,WeatherDisplay:10.37,2013-02-06 21:25:00,
2013-02-06 16:30:00,77.0,63.4,30.09,South,180,5.8,5.8,63,0.00,CLR,,0.00,WeatherDisplay:10.37,2013-02-06 21:30:00,
2013-02-06 16:35:00,76.8,63.3,30.09,ESE,112,6.9,6.9,63,0.00,CLR,,0.00,WeatherDisplay:10.37,2013-02-06 21:35:00,
2013-02-06 16:40:00,77.2,63.2,30.09,ESE,112,4.6,4.6,62,0.00,CLR,,0.00,WeatherDisplay:10.37,2013-02-06 21:40:00,
2013-02-06 16:45:00,77.7,63.7,30.09,East,90,6.9,6.9,62,0.00,CLR,,0.00,WeatherDisplay:10.37,2013-02-06 21:45:00,
2013-02-06 16:50:00,77.5,63.4,30.09,East,96,5.0,8.0,62,0.00,CLR,,0.00,WeatherDisplay:10.37,2013-02-06 21:50:00,
2013-02-06 16:55:00,76.8,63.3,30.09,ESE,112,8.1,8.1,63,0.00,CLR,,0.00,WeatherDisplay:10.37,2013-02-06 21:55:00,
2013-02-06 17:00:00,76.5,62.9,30.09,ESE,114,5.0,9.0,63,0.00,CLR,,0.00,WeatherDisplay:10.37,2013-02-06 22:00:00,
2013-02-06 17:06:00,76.1,62.6,30.09,WNW,292,5.8,5.8,63,0.00,CLR,,0.00,WeatherDisplay:10.37,2013-02-06 22:06:00,
2013-02-06 17:11:00,76.1,62.6,30.09,East,90,6.9,6.9,63,0.00,CLR,,0.00,WeatherDisplay:10.37,2013-02-06 22:11:00,
2013-02-06 17:16:00,76.1,62.1,30.09,SSE,158,6.2,6.2,62,0.00,CLR,,0.00,WeatherDisplay:10.37,2013-02-06 22:16:00,
2013-02-06 17:21:00,75.9,62.0,30.09,ENE,68,5.8,5.8,62,0.00,CLR,,0.00,WeatherDisplay:10.37,2013-02-06 22:21:00,
2013-02-06 17:26:00,75.9,61.5,30.09,ENE,68,4.6,4.6,61,0.00,CLR,,0.00,WeatherDisplay:10.37,2013-02-06 22:26:00,
2013-02-06 17:32:00,75.9,61.5,30.09,North,0,5.8,5.8,61,0.00,CLR,,0.00,WeatherDisplay:10.37,2013-02-06 22:32:00,
2013-02-06 17:37:00,75.9,61.5,30.09,East,90,5.8,5.8,61,0.00,CLR,,0.00,WeatherDisplay:10.37,2013-02-06 22:37:00,
2013-02-06 17:42:00,75.9,61.0,30.09,ESE,112,8.1,8.1,60,0.00,CLR,,0.00,WeatherDisplay:10.37,2013-02-06 22:42:00,
2013-02-06 17:47:00,75.7,60.4,30.09,SE,135,5.8,5.8,59,0.00,CLR,,0.00,WeatherDisplay:10.37,2013-02-06 22:47:00,
2013-02-06 17:52:00,75.7,60.9,30.09,ENE,68,5.8,5.8,60,0.00,CLR,,0.00,WeatherDisplay:10.37,2013-02-06 22:52:00,
2013-02-06 17:57:00,75.6,60.7,30.09,East,90,5.9,5.9,60,0.00,CLR,,0.00,WeatherDisplay:10.37,2013-02-06 22:57:00,
2013-02-06 18:02:00,75.6,60.7,30.09,ENE,68,5.8,5.8,60,0.00,CLR,,0.00,WeatherDisplay:10.37,2013-02-06 23:02:00,
2013-02-06 18:07:00,75.4,60.5,30.09,SW,225,4.6,4.6,60,0.00,CLR,,0.00,WeatherDisplay:10.37,2013-02-06 23:07:00,
2013-02-06 18:12:00,75.4,60.5,30.09,SE,135,6.9,6.9,60,0.00,CLR,,0.00,WeatherDisplay:10.37,2013-02-06 23:12:00,
2013-02-06 18:18:00,75.4,60.1,30.09,SE,135,5.8,5.8,59,0.00,CLR,,0.00,WeatherDisplay:10.37,2013-02-06 23:18:00,
2013-02-06 18:23:00,75.4,60.1,30.09,East,90,4.6,4.6,59,0.00,CLR,,0.00,WeatherDisplay:10.37,2013-02-06 23:23:00,
2013-02-06 18:28:00,75.2,59.9,30.09,ESE,112,5.8,5.8,59,0.00,CLR,,0.00,WeatherDisplay:10.37,2013-02-06 23:28:00,
2013-02-06 18:33:00,75.4,59.6,30.06,NE,45,8.1,8.1,58,0.00,CLR,,0.00,WeatherDisplay:10.37,2013-02-06 23:33:00,
2013-02-06 18:38:00,75.2,59.4,30.06,North,0,5.8,5.8,58,0.00,CLR,,0.00,WeatherDisplay:10.37,2013-02-06 23:38:00,
2013-02-06 18:43:00,75.2,58.9,30.06,SE,135,5.8,5.8,57,0.00,CLR,,0.00,WeatherDisplay:10.37,2013-02-06 23:43:00,
2013-02-06 18:48:00,75.0,58.8,30.09,ENE,68,6.9,6.9,57,0.00,CLR,,0.00,WeatherDisplay:10.37,2013-02-06 23:48:00,
2013-02-06 18:53:00,75.2,58.9,30.09,SW,225,6.9,6.9,57,0.00,CLR,,0.00,WeatherDisplay:10.37,2013-02-06 23:53:00,
2013-02-06 18:59:00,75.2,58.9,30.09,ESE,112,9.2,9.2,57,0.00,CLR,,0.00,WeatherDisplay:10.37,2013-02-06 23:59:00,
2013-02-06 19:04:00,75.0,58.8,30.09,ESE,112,8.7,8.7,57,0.00,CLR,,0.00,WeatherDisplay:10.37,2013-02-07 00:04:00,
2013-02-06 19:09:00,75.0,59.2,30.09,ENE,68,5.9,5.9,58,0.00,CLR,,0.00,WeatherDisplay:10.37,2013-02-07 00:09:00,
2013-02-06 19:14:00,75.0,59.2,30.09,East,90,6.0,6.0,58,0.00,CLR,,0.00,WeatherDisplay:10.37,2013-02-07 00:14:00,
2013-02-06 19:19:00,75.0,58.8,30.09,East,90,6.9,6.9,57,0.00,CLR,,0.00,WeatherDisplay:10.37,2013-02-07 00:19:00,
2013-02-06 19:24:00,75.0,58.8,30.09,ENE,68,6.4,6.4,57,0.00,CLR,,0.00,WeatherDisplay:10.37,2013-02-07 00:24:00,
2013-02-06 19:29:00,75.0,58.8,30.09,ENE,68,6.9,6.9,57,0.00,CLR,,0.00,WeatherDisplay:10.37,2013-02-07 00:29:00,
2013-02-06 19:34:00,75.0,58.8,30.12,SE,135,5.8,5.8,57,0.00,CLR,,0.00,WeatherDisplay:10.37,2013-02-07 00:34:00,
2013-02-06 19:39:00,74.8,58.1,30.12,SSW,202,9.2,9.2,56,0.00,CLR,,0.00,WeatherDisplay:10.37,2013-02-07 00:39:00,
2013-02-06 19:45:00,74.8,58.6,30.12,NE,45,5.9,5.9,57,0.00,CLR,,0.00,WeatherDisplay:10.37,2013-02-07 00:45:00,
2013-02-06 19:50:00,74.8,59.1,30.12,East,90,8.1,8.1,58,0.00,CLR,,0.00,WeatherDisplay:10.37,2013-02-07 00:50:00,
2013-02-06 19:55:00,74.8,59.5,30.12,North,0,8.1,8.1,59,0.00,CLR,,0.00,WeatherDisplay:10.37,2013-02-07 00:55:00,
2013-02-06 20:00:00,74.8,60.5,30.12,SE,135,5.8,5.8,61,0.00,CLR,,0.00,WeatherDisplay:10.37,2013-02-07 01:00:00,
2013-02-06 20:05:00,74.7,60.3,30.12,ENE,68,6.9,6.9,61,0.00,CLR,,0.00,WeatherDisplay:10.37,2013-02-07 01:05:00,
2013-02-06 20:10:00,74.7,60.3,30.12,SE,135,8.1,8.1,61,0.00,CLR,,0.00,WeatherDisplay:10.37,2013-02-07 01:10:00,
2013-02-06 20:15:00,74.7,60.8,30.12,South,180,8.1,8.1,62,0.00,CLR,,0.00,WeatherDisplay:10.37,2013-02-07 01:15:00,
2013-02-06 20:20:00,74.5,60.6,30.09,North,0,6.9,6.9,62,0.00,CLR,,0.00,WeatherDisplay:10.37,2013-02-07 01:20:00,
2013-02-06 20:26:00,74.5,60.6,30.09,North,0,8.1,8.1,62,0.00,CLR,,0.00,WeatherDisplay:10.37,2013-02-07 01:26:00,
2013-02-06 20:31:00,74.5,60.6,30.09,ENE,77,5.0,10.0,62,0.00,CLR,,0.00,WeatherDisplay:10.37,2013-02-07 01:31:00,
2013-02-06 20:36:00,74.5,60.6,30.12,North,0,8.1,8.1,62,0.00,CLR,,0.00,WeatherDisplay:10.37,2013-02-07 01:36:00,
2013-02-06 20:41:00,74.5,60.1,30.12,ENE,68,8.1,8.1,61,0.00,CLR,,0.00,WeatherDisplay:10.37,2013-02-07 01:41:00,
2013-02-06 20:46:00,74.5,60.6,30.09,East,90,8.1,8.1,62,0.00,CLR,,0.00,WeatherDisplay:10.37,2013-02-07 01:46:00,
2013-02-06 20:51:00,74.5,60.1,30.09,NE,45,9.2,9.2,61,0.00,CLR,,0.00,WeatherDisplay:10.37,2013-02-07 01:51:00,
2013-02-06 20:57:00,74.5,60.6,30.09,ENE,68,5.8,5.8,62,0.00,CLR,,0.00,WeatherDisplay:10.37,2013-02-07 01:57:00,
2013-02-06 21:02:00,74.3,60.4,30.09,East,90,9.2,9.2,62,0.00,CLR,,0.00,WeatherDisplay:10.37,2013-02-07 02:02:00,
2013-02-06 21:07:00,74.3,60.4,30.09,SE,135,6.2,6.2,62,0.00,CLR,,0.00,WeatherDisplay:10.37,2013-02-07 02:07:00,
2013-02-06 21:12:00,74.3,60.9,30.09,East,90,6.2,6.2,63,0.00,CLR,,0.00,WeatherDisplay:10.37,2013-02-07 02:12:00,
2013-02-06 21:17:00,74.3,60.9,30.09,SW,225,4.7,4.9,63,0.00,CLR,,0.00,WeatherDisplay:10.37,2013-02-07 02:17:00,
2013-02-06 21:23:00,74.1,61.2,30.09,NE,45,6.9,6.9,64,0.00,CLR,,0.00,WeatherDisplay:10.37,2013-02-07 02:23:00,
2013-02-06 21:28:00,74.1,61.2,30.09,SSE,158,8.1,8.1,64,0.00,CLR,,0.00,WeatherDisplay:10.37,2013-02-07 02:28:00,
2013-02-06 21:33:00,74.1,61.2,30.12,ENE,68,6.9,6.9,64,0.00,CLR,,0.00,WeatherDisplay:10.37,2013-02-07 02:33:00,
2013-02-06 21:38:00,74.1,61.2,30.12,ESE,112,4.6,4.6,64,0.00,CLR,,0.00,WeatherDisplay:10.37,2013-02-07 02:38:00,
2013-02-06 21:43:00,74.1,61.2,30.12,North,0,5.8,5.8,64,0.00,CLR,,0.00,WeatherDisplay:10.37,2013-02-07 02:43:00,
2013-02-06 21:48:00,74.1,61.2,30.09,ESE,112,10.4,10.4,64,0.00,CLR,,0.00,WeatherDisplay:10.37,2013-02-07 02:48:00,
2013-02-06 21:53:00,74.1,61.2,30.09,East,90,5.8,5.8,64,0.00,CLR,,0.00,WeatherDisplay:10.37,2013-02-07 02:53:00,
2013-02-06 21:58:00,74.1,61.2,30.09,SE,135,5.8,5.8,64,0.00,CLR,,0.00,WeatherDisplay:10.37,2013-02-07 02:58:00,
2013-02-06 22:03:00,74.1,61.2,30.12,SE,135,8.7,8.7,64,0.00,CLR,,0.00,WeatherDisplay:10.37,2013-02-07 03:03:00,
2013-02-06 22:08:00,73.9,61.0,30.12,South,180,8.1,8.1,64,0.00,CLR,,0.00,WeatherDisplay:10.37,2013-02-07 03:08:00,
2013-02-06 22:14:00,73.9,61.0,30.12,East,90,5.6,5.6,64,0.00,CLR,,0.00,WeatherDisplay:10.37,2013-02-07 03:14:00,
2013-02-06 22:19:00,73.9,61.0,30.12,SE,135,9.2,9.2,64,0.00,CLR,,0.00,WeatherDisplay:10.37,2013-02-07 03:19:00,
2013-02-06 22:24:00,73.9,61.0,30.12,NE,45,9.2,9.2,64,0.00,CLR,,0.00,WeatherDisplay:10.37,2013-02-07 03:24:00,
2013-02-06 22:29:00,73.9,61.0,30.12,ENE,68,6.9,6.9,64,0.00,CLR,,0.00,WeatherDisplay:10.37,2013-02-07 03:29:00,
2013-02-06 22:34:00,73.9,61.0,30.12,SSW,202,8.7,8.7,64,0.00,CLR,,0.00,WeatherDisplay:10.37,2013-02-07 03:34:00,
2013-02-06 22:39:00,73.9,61.4,30.12,NW,315,9.2,9.2,65,0.00,CLR,,0.00,WeatherDisplay:10.37,2013-02-07 03:39:00,
2013-02-06 22:44:00,73.9,61.4,30.12,SE,135,6.9,6.9,65,0.00,CLR,,0.00,WeatherDisplay:10.37,2013-02-07 03:44:00,
2013-02-06 22:49:00,73.9,61.4,30.09,SE,135,7.1,7.1,65,0.00,CLR,,0.00,WeatherDisplay:10.37,2013-02-07 03:49:00,
2013-02-06 22:55:00,73.9,61.9,30.09,ENE,68,6.9,6.9,66,0.00,CLR,,0.00,WeatherDisplay:10.37,2013-02-07 03:55:00,
2013-02-06 23:00:00,73.9,61.4,30.09,South,180,11.5,11.5,65,0.00,CLR,,0.00,WeatherDisplay:10.37,2013-02-07 04:00:00,
2013-02-06 23:05:00,73.9,61.9,30.09,SE,135,8.7,8.7,66,0.00,CLR,,0.00,WeatherDisplay:10.37,2013-02-07 04:05:00,
2013-02-06 23:10:00,73.9,61.9,30.09,ESE,102,7.0,12.0,66,0.00,CLR,,0.00,WeatherDisplay:10.37,2013-02-07 04:10:00,
2013-02-06 23:15:00,73.9,61.9,30.12,East,90,9.2,9.2,66,0.00,CLR,,0.00,WeatherDisplay:10.37,2013-02-07 04:15:00,
2013-02-06 23:21:00,73.9,61.9,30.12,East,90,9.2,9.2,66,0.00,CLR,,0.00,WeatherDisplay:10.37,2013-02-07 04:21:00,
2013-02-06 23:26:00,73.9,61.9,30.12,ESE,112,10.4,10.4,66,0.00,CLR,,0.00,WeatherDisplay:10.37,2013-02-07 04:26:00,
2013-02-06 23:31:00,73.8,61.7,30.12,NE,45,8.1,8.1,66,0.00,CLR,,0.00,WeatherDisplay:10.37,2013-02-07 04:31:00,
2013-02-06 23:37:00,73.8,61.7,30.12,ESE,112,8.1,8.1,66,0.00,CLR,,0.00,WeatherDisplay:10.37,2013-02-07 04:37:00,
2013-02-06 23:42:00,73.8,61.7,30.12,SE,135,8.1,8.1,66,0.00,CLR,,0.00,WeatherDisplay:10.37,2013-02-07 04:42:00,
2013-02-06 23:47:00,73.8,61.7,30.09,ESE,112,8.1,8.1,66,0.00,CLR,,0.00,WeatherDisplay:10.37,2013-02-07 04:47:00,
2013-02-06 23:52:00,73.8,61.7,30.09,SSE,158,8.1,8.1,66,0.00,CLR,,0.00,WeatherDisplay:10.37,2013-02-07 04:52:00,
2013-02-06 23:57:00,73.8,62.1,30.09,SE,135,9.2,9.2,67,0.00,CLR,,0.00,WeatherDisplay:10.37,2013-02-07 04:57:00,